Regional Weather Roundup
Issued by NWS Kansas City/Pleasant Hill, MO

Home | Current Version | Previous Version | Graphics & Text | Print | Product List | Glossary Off
Versions: 1 2 3 4 5 6 7 8 9 10 11 12 13 14 15 16 17 18 19 20 21 22 23 24 25 26 27

000
ASUS43 KEAX 180810
RWREAX

WEATHER ROUNDUP FOR EASTERN KANSAS AND NORTHWEST MISSOURI
NATIONAL WEATHER SERVICE KANSAS CITY/PLEASANT HILL MO
300 AM CDT FRI AUG 18 2017

KSZ040-057-103>105-MOZ028-029-037-043-180900-
...KANSAS CITY METROPOLITAN AREA...

CITY           SKY/WX    TMP DP  RH WIND       PRES   REMARKS
K.C. INTL      PTCLDY    65  62  90 S6        29.96S
K.C. DOWNTOWN  PTCLDY    70  64  81 CALM      29.96R
LEES SUMMIT    CLOUDY    67  63  87 SW6       29.97S
OLATHE - IXD   PTCLDY    68  60  75 SW8       29.98S
OLATHE - OJC   PTCLDY    66  62  87 SW3       29.98R
LAWRENCE       CLOUDY    61  61 100 CALM      29.96S

$$

MOZ001>008-011>017-020>025-030>033-038>040-044>046-053-054-180900-
...NORTHERN AND CENTRAL MISSOURI...

CITY           SKY/WX    TMP DP  RH WIND       PRES   REMARKS
ST. JOSEPH     PTCLDY    58  58 100 CALM      29.95S
MOSBY          MOSUNNY   61  61 100 CALM      29.96S FOG
WARRENSBURG    CLOUDY    61  61 100 S3        29.97R
WHITEMAN AFB   PTCLDY    64  64 100 W5        29.96R
CLINTON        CLOUDY    64  63  94 MISG      29.98R
SEDALIA        CLOUDY    67  65  93 W3        29.98R
WARSAW         NOT AVBL
CHILLICOTHE      N/A     60  60 100 CALM      29.96R
KIRKSVILLE     CLEAR     62  59  90 W5        29.94R

$$

MOZ041-047>049-056>058-063>065-088>090-097-180900-
...EASTERN AND SOUTHERN MISSOURI...

CITY           SKY/WX    TMP DP  RH WIND       PRES   REMARKS
ST. LOUIS INTL CLOUDY    70  64  81 W7        29.91S
SPIRIT OF STL  CLOUDY    66  64  93 W6        29.91R
COLUMBIA       PTCLDY    65  62  90 W6        29.95R
JEFFERSON CITY CLOUDY    66  65  96 CALM      29.95R
ROLLA          CLEAR     63  62  97 SW7       29.98R
OSAGE BEACH    PTCLDY    61  61 100 CALM      29.98R
SPRINGFIELD    CLEAR     63  61  93 CALM      30.01R
BRANSON        CLEAR     68  66  94 CALM      30.04R
JOPLIN         PTCLDY    65  63  93 S3        30.00S
WEST PLAINS    CLEAR     64  62  93 CALM      30.01S

$$

IAZ060-094-KSZ022-034>040-054-083-096-NEZ052-066-093-180900-
...KANSAS...SOUTHEAST NEBRASKA AND IOWA...

CITY           SKY/WX    TMP DP  RH WIND       PRES   REMARKS
TOPEKA         MOCLDY    64  62  93 CALM      29.95F
MANHATTAN      PTCLDY    68  63  84 SW10      29.96S
EMPORIA        MOCLDY    68  60  75 S8        29.97F
CHANUTE        PTCLDY    67  62  84 S3        29.99S
WICHITA        TSTM      73  63  70 VRB3      30.01R
OMAHA          MOCLDY    67  61  81 SE6       29.91F
LINCOLN        MOCLDY    71  61  70 N14G24    29.98R
FALLS CITY     CLEAR     62  60  93 SE5       29.93F
LAMONI         CLEAR     61  59  93 W5        29.94F
DES MOINES     CLEAR     64  60  87 CALM      29.90F

$$





USA.gov is the U.S. government's official web portal to all federal, state and local government web resources and services.